Showing default

STPSAT-6, 49817

Orbit data source: Space-Track

STPSAT-6, 49817 is a payload satellite owned by USAF STP (US) in GEO that was launched on Tue, 07 Dec 2021 UTC via an ATLAS V 551 launch vehicle from the Air Force Eastern Test Range (AFETR). Payload-class satellites include a variety of spacecraft equipped with specific instruments for various scientific and technological missions. These include communications satellites like Starlink; space stations such as the ISS; scientific satellites like the Hubble; Earth observation satellites from companies like Planet Labs, Umbra, and HawkEye 360; GPS; miniature CubeSats for education and research; and military/defense satellites.

Loading next visibility...
Identifier
49817, 2021-118A
Orbit
GEO
Country
Flag of USUS
Related business
Manufacturer
NGAS
Mission
Operational Defense Technology
Bus & Motor
A-500, Unknown motor
Mass
~1,000 kg wet, ~1,000 kg dry
Launch date (UTC)
2021-12-07 (4 years ago)
Launch vehicle
ATLAS V 551
Launch site
Air Force Eastern Test Range (AFETR)
Object type
Payload
Rocket body
Debris
Shape & HBR
Box + 1 Pan, 1.0 m
Radar Cross Section
2.500 m², Large (>1 m²)

Expand to show TLE details & history
Last TLE update: 16 hours ago

TLE from 16 hours ago
0 STPSAT-6
1 49817U 21118A   25291.24620252 -.00000052  00000-0  00000-0 0  9992
2 49817   0.0407  52.0291 0002030 224.6579  87.2702  1.00269175 14148
Epoch: 2025-10-18T05:54Z
TLE epoch observation values (Epoch: 2025-10-18T05:54:31.897Z)
Latitude
-0.00024°
Longitude
-111.65256°
Altitude
35,786.426 km
Speed
3.075 km/s
True Right ascension
00h 15m 50s
True Declination
0° 00' 01"
Sunlit
Object was in daylight at epoch
Visualization orbit readout
Latitude
Unknown
Longitude
Unknown
Altitude
Unknown
Speed
Unknown
Apparent Right ascension
Unknown
Apparent Declination
Unknown
Sunlit
N/A
Visualization observer readout
Local Sidereal Time
16:43:29
Azimuth
Unknown
Elevation
Unknown
Doppler factor
Unknown
Orbital elements
Apogee altitude
35,796.957 km
Perigee altitude
35,779.837 km
Semi-major axis
42,166.534 km
Eccentricity
0.0002
Inclination
0.0407°
RAAN
52.0291°
Arg. of periapsis
224.6579°
True anomaly
87.29344°
Mean anomaly
87.2702°
Eccentric anomaly
87.28182°
Mean motion
0.25066 °/min
Orbital period
1,436.19 mins
BSTAR
0
Loading maneuver chart data...
Computing Atmospheric mass density...
Loading historical data...
Loading historical data...
Loading historical data...
Loading historical data...
Loading historical data...
Loading historical data...
Loading historical data...
Other satellites on launch #118 in the year 2021 (2021-12-07 UTC)

Documentation

Showing up to 5 results
|